Погода в Великом Кучурове

Украина / Черновицкая область     48°12′51″N   25°54′27″E
В апреле 2022 года жителям России запретили посещать сайт meteo.paraplan.net по решению Генеральной прокуратуры. Аудитория сайта уменьшилась в 10 раз. Владельцы сайта не видят смысла в поддержке погодного сервера в таких условиях. Сайт будет закрыт в октябре.
темп.,
°C
ветер,
м/с
пор.,
м/с
влажн.,
%
обл.,
%
осадки,
мм/ч
давл.,
гПа
погр.,
м
25 сентября, вс
вс2500:00+7юз1173100 0.0 101910
03:00+6ююз1176100 0.0 102010
06:00+6ю227977 0.0 101914
09:00+10ююв226843 0.0 1018122
12:00+15юв235066 0.0 1017686
15:00+19юв234379 0.0 10151423
18:00+16вюв2357100 0.0 101454
21:00+14юв116396 0.1 101510
26 сентября, пн
пн2600:00+13ююз1167100 0.0 101412
03:00+11ююз1173100 0.0 101310
06:00+10ююв1277100 0.0 101211
09:00+13ююв1267100 0.0 1011112
12:00+19в1247100 0.0 1010718
15:00+15ссв3564100 0.0 1009250
18:00+15с1268100 0.0 100973
21:00+13всв1176100 0.1 100814
27 сентября, вт
вт2700:00+12юв1185100 1.1 100715
03:00+12юв1192100 2.3 100533
06:00+11всв0198100 3.8 100345
09:00+12в2399100 7.9 1002139
12:00+13сз1295100 0.3 1002236
15:00+13сз4687100 0.3 1001495
18:00+13зсз1391100 1.7 1001173
21:00+11з119265 1.7 100110
28 сентября, ср
ср2800:00+10зюз119197 0.0 100210
03:00+9юз11899 0.0 100210
06:00+10з118772 0.0 100310
09:00+11ссз1187100 0.3 100314
12:00+13сз3379100 0.1 1004403
15:00+13сз00825 0.1 1004215
18:00+15в23772 0.0 100491
21:00+11юв22895 0.0 100612
29 сентября, чт
чт2900:00+10ююв229010 0.0 100725
03:00+10ююв228976 0.0 100712
06:00+10юв2287100 0.0 100616
09:00+12юв2377100 0.0 1006113
12:00+19ююв4554100 0.0 1006567
15:00+19ююв2358100 0.0 1005226
18:00+18ююз2368100 0.0 100669
21:00+16ююз2472100 0.0 100863